Flag for Mexico Weather past 2 weeks in Playa del Carmen, Quintana Roo, Mexico

Now
79 °F

Scattered clouds.


Feels Like: 82 °F
Forecast: 74 / 81 °F
Wind: 8 mph from Southeast

Location: Cozumel Civ / Mil

Current Time: Dec 29, 2014 at 10:43:32 AM

Latest Report: Dec 29, 2014 at 9:49 AM


Visibility: 8 mi

Pressure: 30.10 "Hg

Humidity: 84%

Dew point: 73 °F

Location of Playa del CarmenLocation

Historic Weather in Playa del Carmen — Graph

°F

Playa del Carmen temperature yesterday

Maximum temperature yesterday: 81 °F (at 12:50 PM)
Minimum temperature yesterday: 68 °F (at 1:34 AM)
Average temperature yesterday: 73 °F

Past Weeks' High & Low Weather Summary

 TemperatureHumidityPressure
High81 °F (Dec 23, 12:47 PM)100% (Dec 14, 9:43 PM)30.22 "Hg (Dec 14, 9:43 PM)
Low52 °F (Dec 15, 4:53 AM)61% (Dec 14, 11:42 AM)29.74 "Hg (Dec 23, 5:49 PM)
Average71 °F91%30.01 "Hg
* Reported Dec 14 9:46 AM — Dec 29 9:49 AM, Playa del Carmen, Weather by CustomWeather, © 2014

Note: Actual official high and low records may vary slightly from our data, if they occured in-between our weather recording intervals... More about our weather records

Advertising

Playa del Carmen weather history for previous 24 hours

 ConditionsComfort  
Time TempWeatherWind HumidityBarometerVisibility
9:49 AM
Dec 29
79 °FScattered clouds.8 mph84%30.10 "Hg8 mi
8:52 AM77 °FPassing clouds.10 mph89%30.11 "Hg8 mi
7:48 AM72 °FPassing clouds.3 mph100%30.07 "Hg8 mi
6:41 AM66 °FPassing clouds.No wind100%30.05 "Hg8 mi
5:46 AM66 °FClear.No wind100%30.02 "Hg7 mi
4:41 AM68 °FClear.No wind100%30.03 "Hg7 mi
3:48 AM70 °FClear.No wind100%30.03 "Hg7 mi
2:49 AM70 °FClear.No wind100%30.06 "Hg7 mi
1:53 AM70 °FClear.No wind100%30.03 "Hg7 mi
11:46 PM
Dec 28
70 °FClear.No wind100%30.04 "Hg7 mi
10:48 PM70 °FClear.3 mph100%30.07 "Hg7 mi
9:41 PM70 °FClear.3 mph100%30.08 "Hg7 mi
8:46 PM70 °FClear.3 mph100%30.09 "Hg7 mi
7:51 PM70 °FPassing clouds.6 mph100%30.05 "Hg7 mi
6:47 PM72 °FPassing clouds.8 mph100%30.04 "Hg7 mi
5:49 PM73 °FPassing clouds.3 mph100%30.01 "Hg7 mi
4:49 PM75 °FPartly sunny.3 mph94%30.02 "Hg8 mi
3:49 PM79 °FScattered clouds.9 mph84%30.01 "Hg8 mi
2:44 PM79 °FBroken clouds.10 mph84%30.03 "Hg8 mi
1:46 PM79 °FBroken clouds.9 mph84%30.01 "Hg8 mi
12:50 PM81 °FBroken clouds.15 mph79%30.02 "Hg8 mi
11:49 AM79 °FPartly sunny.10 mph84%30.03 "Hg8 mi
10:49 AM79 °FPartly sunny.12 mph84%30.07 "Hg8 mi
Weather by CustomWeather, © 2014

See weather overviewHow to use our weather pages